This is the latest recevied weather packets stored in our database for station/object KD4WXI. If no packets are shown the sender has not sent any weather packets the latest 10 day(s).
| Time | Temp. | Humidity | Pressure | Rain* | Wind** | Luminosity | Snow |
|---|---|---|---|---|---|---|---|
| 1777665604 | 20° C | 46% | 1013.2 hPa | 0 mm | - | 509 W/m² | - |
| 1777665301 | 20° C | 45% | 1013.1 hPa | 0 mm | - | 414 W/m² | - |
| 1777664996 | 21.11° C | 45% | 1013.1 hPa | 0 mm | - | 402 W/m² | - |
| 1777664692 | 20° C | 44% | 1013.3 hPa | 0 mm | - | 505 W/m² | - |
| 1777664388 | 20° C | 45% | 1013.5 hPa | 0 mm | - | 610 W/m² | - |
| 1777664086 | 20° C | 49% | 1013.4 hPa | 0 mm | - | 354 W/m² | - |
| 1777663784 | 20° C | 47% | 1013.7 hPa | 0 mm | - | 325 W/m² | - |
| 1777663481 | 20.56° C | 46% | 1013.6 hPa | 0 mm | - | 304 W/m² | - |
| 1777663178 | 21.11° C | 44% | 1013.8 hPa | 0 mm | - | 503 W/m² | - |
| 1777662875 | 20° C | 44% | 1013.9 hPa | 0 mm | - | 634 W/m² | - |
| 1777662572 | 20° C | 48% | 1014.3 hPa | 0 mm | - | 707 W/m² | - |
| 1777662269 | 20° C | 45% | 1014.2 hPa | 0 mm | - | 755 W/m² | - |
| 1777661969 | 20° C | 43% | 1014.2 hPa | 0 mm | - | 327 W/m² | - |
| 1777661666 | 19.44° C | 45% | 1014.3 hPa | 0 mm | - | 472 W/m² | - |
| 1777661361 | 18.89° C | 45% | 1014.5 hPa | 0 mm | - | 265 W/m² | - |
| 1777661058 | 20° C | 47% | 1014.7 hPa | 0 mm | - | 290 W/m² | - |
| 1777660753 | 20.56° C | 44% | 1014.2 hPa | 0 mm | - | 546 W/m² | - |
| 1777660450 | 20° C | 41% | 1014.2 hPa | 0 mm | - | 796 W/m² | - |
| 1777660147 | 19.44° C | 43% | 1014.2 hPa | 0 mm | - | 711 W/m² | - |
| 1777659844 | 19.44° C | 44% | 1014.5 hPa | 0 mm | - | 811 W/m² | - |
| 1777659540 | 19.44° C | 44% | 1014.3 hPa | 0 mm | - | 713 W/m² | - |
| 1777659237 | 19.44° C | 46% | 1014.8 hPa | 0 mm | - | 627 W/m² | - |
| 1777658935 | 18.89° C | 44% | 1014.8 hPa | 0 mm | - | 791 W/m² | - |
| 1777658631 | 19.44° C | 49% | 1014.8 hPa | 0 mm | - | 348 W/m² | - |
| 1777658328 | 18.89° C | 45% | 1014.8 hPa | 0 mm | - | 326 W/m² | - |
* Rain latest hour (hover to see other rain measurements)
** Current wind speed in m/s (hover to see current wind gust speed)